Location: Indian Springs
(36.5700°N, 115.6700°W)
Time: 11:22:59
(UTC-07:00)

Amateur Radio Satellites - All Passes

Search period start: 21 October 2014 10:52
Search period end: 22 October 2014 10:52
Location: Indian Springs, 36.5700°N, 115.6700°W

Satellite Date Start Highest point End Downlink Frequencies (MHz)
Time Altitude Azimuth
HO-68 21 Oct 11:16:36 11:22:16 26° 299° (WNW) 11:27:55 435.675 MHz FM
PANSAT 21 Oct 11:18:10 11:21:16 24° 183° (S) 11:24:22 not established
ZACube-1 21 Oct 11:30:43 11:34:48 44° 287° (WNW) 11:38:46 437.345 MHz
UKube-1 21 Oct 11:44:57 11:47:01 13° 295° (WNW) 11:49:05 145.840 MHz, 145.915 MHz
JAS-1B 21 Oct 12:09:09 12:11:42 13° 61° (ENE) 12:14:11 435.800 - 435.900 CW/SSB
FUNcube-1 21 Oct 12:17:58 12:20:11 14° 294° (WNW) 12:22:22 145.950 - 145.970 MHz USB
Oscar 10/S400 21 Oct 12:24:08 12:44:53 33° 152° (SSE) 13:01:55 145.825 - 145.975 CW/USB, Beacon 145.810 USB
Oscar 16 21 Oct 12:26:07 12:29:55 21° 66° (ENE) 12:33:43 437.025 USB, Beacon 2401.1428
ISS 21 Oct 12:33:08 12:34:38 13° 127° (SE) 12:36:08 145.800 FM
KITSAT 1 21 Oct 12:36:34 12:44:32 68° 114° (ESE) 12:52:33 435.175 FM
Uribyol 2 21 Oct 12:41:00 12:42:57 12° 61° (ENE) 12:44:53 436.500 FM
ITAMSAT 1 21 Oct 12:45:48 12:47:58 13° 62° (ENE) 12:50:08 435.822 SSB
AO-Echo 21 Oct 12:52:07 12:55:12 17° 65° (ENE) 12:58:21 ?
PANSAT 21 Oct 12:58:39 13:00:52 15° 196° (SSW) 13:03:04 not established
SO-50 21 Oct 13:04:27 13:08:28 34° 113° (ESE) 13:12:35 436.795 FM
Sapphire 21 Oct 13:13:16 13:17:54 28° 54° (NE) 13:22:29 437.095 MHz 1200 baud AX-25 AFSK
Oscar 19 21 Oct 13:18:39 13:23:45 67° 74° (ENE) 13:28:53 437.125 CW, 437.150 USB
AO-27 21 Oct 13:27:33 13:32:09 33° 69° (ENE) 13:36:47 436.795 MHz FM
PCSat 21 Oct 13:35:53 13:41:06 45° 58° (ENE) 13:46:16 145.825 MHz
JAS-1B 21 Oct 13:55:30 14:01:49 75° 257° (WSW) 14:07:32 435.800 - 435.900 CW/SSB
Oscar 16 21 Oct 14:04:04 14:08:57 42° 261° (W) 14:13:51 437.025 USB, Beacon 2401.1428
ISS 21 Oct 14:07:42 14:10:58 54° 322° (NW) 14:14:15 145.800 FM
Uribyol 2 21 Oct 14:16:29 14:21:42 79° 257° (WSW) 14:26:57 436.500 FM
Gurwin Techsat 1B 21 Oct 14:19:50 14:24:58 53° 73° (ENE) 14:30:07 435.225 FM
ITAMSAT 1 21 Oct 14:21:35 14:26:46 75° 257° (WSW) 14:32:01 435.822 SSB
AO-Echo 21 Oct 14:28:54 14:33:31 48° 261° (W) 14:38:19 ?
TMSAT-1 21 Oct 14:33:31 14:38:38 52° 73° (ENE) 14:43:46 436.925 FM
KITSAT 1 21 Oct 14:33:51 14:40:32 28° 313° (NW) 14:47:16 435.175 FM
SO-50 21 Oct 14:45:23 14:49:03 24° 310° (NW) 14:52:49 436.795 FM
UOSAT-12 21 Oct 14:48:01 14:52:11 35° 113° (ESE) 14:56:27 437.025 FM, 437.400 FM
Sapphire 21 Oct 14:56:23 15:01:22 38° 250° (WSW) 15:06:20 437.095 MHz 1200 baud AX-25 AFSK
Oscar 19 21 Oct 15:01:28 15:03:31 12° 269° (W) 15:05:33 437.125 CW, 437.150 USB
AO-27 21 Oct 15:07:19 15:11:38 26° 264° (W) 15:16:00 436.795 MHz FM
PCSat 21 Oct 15:20:07 15:24:09 22° 254° (WSW) 15:28:09 145.825 MHz
AO-7 21 Oct 15:25:41 15:33:32 50° 65° (ENE) 15:41:23 29.400 - 29.500 MHz
ISS 21 Oct 15:47:13 15:48:17 11° 340° (NNW) 15:49:20 145.800 FM
Gurwin Techsat 1B 21 Oct 16:01:53 16:05:12 17° 267° (W) 16:08:33 435.225 FM
JAS-2 21 Oct 16:05:43 16:09:09 16° 59° (ENE) 16:12:48 435.800 - 435.900 CW/SSB, 435.910 FM
Uosat F 21 Oct 16:10:09 16:15:06 66° 74° (ENE) 16:20:06 435.120 FM
TMSAT-1 21 Oct 16:15:27 16:18:49 17° 267° (W) 16:22:11 436.925 FM
UOSAT-12 21 Oct 16:28:34 16:32:23 25° 310° (NW) 16:36:17 437.025 FM, 437.400 FM
Hamsat 21 Oct 16:33:26 16:34:37 11° 65° (ENE) 16:35:48 145.90 MHz
Saudisat 1A 21 Oct 16:46:15 16:50:05 28° 52° (NE) 16:53:53 436.775 MHz
AO-7 21 Oct 17:19:12 17:26:26 34° 262° (W) 17:33:44 29.400 - 29.500 MHz
AO-40 21 Oct 17:40:20 23:39:39 48° 183° (S) 08:02:00 Beacon 2401.320
OPAL 21 Oct 17:41:40 17:46:31 52° 102° (ESE) 17:51:19 ?
JAS-2 21 Oct 17:47:40 17:53:17 72° 258° (WSW) 17:59:41 435.800 - 435.900 CW/SSB, 435.910 FM
Uosat F 21 Oct 17:52:26 17:54:18 12° 269° (W) 17:56:10 435.120 FM
Hamsat 21 Oct 18:05:54 18:10:03 56° 260° (W) 18:14:12 145.90 MHz
Saudisat 1A 21 Oct 18:25:49 18:29:33 27° 248° (WSW) 18:33:16 436.775 MHz
SO-67 21 Oct 18:37:25 18:40:30 32° 74° (ENE) 18:43:37 435.3500 MHz FM
ISS 21 Oct 19:03:12 19:04:25 12° 21° (NNE) 19:05:39 145.800 FM
STRAND 1 21 Oct 19:20:17 19:25:22 57° 101° (E) 19:30:25 ?
OPAL 21 Oct 19:21:52 19:24:57 17° 298° (WNW) 19:28:01 ?
HO-68 21 Oct 19:54:19 20:00:33 34° 64° (ENE) 20:06:48 435.675 MHz FM
SO-67 21 Oct 20:12:40 20:13:35 11° 268° (W) 20:14:31 435.3500 MHz FM
RS-15 21 Oct 20:28:02 20:31:39 12° 97° (E) 20:35:14 29.354 - 29.394 USB, Beacon 29.352 USB
KITSAT 1 21 Oct 20:33:15 20:39:28 23° 44° (NE) 20:45:38 435.175 FM
ISS 21 Oct 20:38:24 20:41:42 59° 39° (NE) 20:44:59 145.800 FM
UKube-1 21 Oct 21:00:15 21:04:07 32° 71° (ENE) 21:08:00 145.840 MHz, 145.915 MHz
STRAND 1 21 Oct 21:01:00 21:04:02 16° 296° (WNW) 21:07:04 ?
FUNcube-1 21 Oct 21:33:59 21:37:55 28° 71° (ENE) 21:41:49 145.950 - 145.970 MHz USB
SO-50 21 Oct 21:38:29 21:42:02 20° 48° (NE) 21:45:36 436.795 FM
HO-68 21 Oct 21:41:20 21:48:01 43° 261° (W) 21:54:47 435.675 MHz FM
Oscar 11 21 Oct 21:44:20 21:48:41 89° 258° (WSW) 21:53:02 145.825 FM, Beacon 2401.500 USB
ISS 21 Oct 22:16:47 22:18:00 12° 233° (SW) 22:19:14 145.800 FM
ZACube-1 21 Oct 22:23:51 22:28:28 79° 258° (WSW) 22:33:03 437.345 MHz
KITSAT 1 21 Oct 22:27:41 22:35:47 83° 244° (WSW) 22:43:50 435.175 FM
RS-15 21 Oct 22:30:59 22:41:56 72° 115° (ESE) 22:52:45 29.354 - 29.394 USB, Beacon 29.352 USB
UKube-1 21 Oct 22:37:14 22:40:20 19° 265° (W) 22:43:28 145.840 MHz, 145.915 MHz
FUNcube-1 21 Oct 23:10:28 23:14:12 24° 265° (W) 23:17:57 145.950 - 145.970 MHz USB
SO-50 21 Oct 23:18:09 23:22:52 51° 244° (WSW) 23:27:35 436.795 FM
UOSAT-12 21 Oct 23:20:24 23:23:42 18° 47° (NE) 23:26:56 437.025 FM, 437.400 FM
MaSat-1 21 Oct 23:39:46 23:43:29 28° 108° (ESE) 23:46:58 437.345 MHz
KITSAT 1 22 Oct 00:26:25 00:29:55 13° 260° (W) 00:33:26 435.175 FM
RS-15 22 Oct 00:45:36 00:55:09 33° 318° (NW) 01:04:46 29.354 - 29.394 USB, Beacon 29.352 USB
UOSAT-12 22 Oct 00:59:34 01:04:09 52° 244° (WSW) 01:08:37 437.025 FM, 437.400 FM
MaSat-1 22 Oct 01:15:54 01:19:11 22° 300° (WNW) 01:22:16 437.345 MHz
Oscar 10/S400 22 Oct 01:27:49 02:31:14 21° 246° (WSW) 04:57:06 145.825 - 145.975 CW/USB, Beacon 145.810 USB
Oscar 19 22 Oct 01:33:16 01:37:39 28° 96° (E) 01:42:01 437.125 CW, 437.150 USB
JAS-1B 22 Oct 01:40:29 01:46:34 35° 99° (E) 01:53:37 435.800 - 435.900 CW/SSB
AO-27 22 Oct 01:44:28 01:47:09 14° 92° (E) 01:49:50 436.795 MHz FM
Oscar 16 22 Oct 02:17:55 02:23:04 84° 103° (ESE) 02:28:11 437.025 USB, Beacon 2401.1428
Uribyol 2 22 Oct 02:31:57 02:36:57 46° 99° (E) 02:41:54 436.500 FM
ITAMSAT 1 22 Oct 02:37:07 02:42:11 48° 100° (E) 02:47:11 435.822 SSB
AO-Echo 22 Oct 02:38:02 02:43:20 68° 102° (ESE) 02:48:37 ?
Gurwin Techsat 1B 22 Oct 02:39:06 02:43:29 26° 95° (E) 02:47:50 435.225 FM
TMSAT-1 22 Oct 02:52:25 02:56:45 25° 95° (E) 03:01:04 436.925 FM
RS-15 22 Oct 03:07:29 03:12:32 14° 352° (N) 03:17:39 29.354 - 29.394 USB, Beacon 29.352 USB
Oscar 19 22 Oct 03:12:31 03:16:55 30° 291° (WNW) 03:21:17 437.125 CW, 437.150 USB
AO-27 22 Oct 03:21:52 03:27:01 61° 287° (WNW) 03:32:09 436.795 MHz FM
JAS-1B 22 Oct 03:31:06 03:37:07 40° 290° (WNW) 03:44:09 435.800 - 435.900 CW/SSB
AO-7 22 Oct 03:31:50 03:36:49 17° 92° (E) 03:41:45 29.400 - 29.500 MHz
Sapphire 22 Oct 03:52:24 03:57:22 39° 110° (ESE) 04:02:23 437.095 MHz 1200 baud AX-25 AFSK
Oscar 16 22 Oct 04:00:28 04:01:40 11° 299° (WNW) 04:02:52 437.025 USB, Beacon 2401.1428
Uribyol 2 22 Oct 04:12:21 04:16:03 20° 295° (WNW) 04:19:44 436.500 FM
PCSat 22 Oct 04:14:50 04:20:11 70° 114° (ESE) 04:25:35 145.825 MHz
ITAMSAT 1 22 Oct 04:17:40 04:21:16 19° 295° (WNW) 04:24:51 435.822 SSB
Gurwin Techsat 1B 22 Oct 04:18:40 04:23:27 35° 290° (WNW) 04:28:12 435.225 FM
AO-Echo 22 Oct 04:18:41 04:21:29 15° 297° (WNW) 04:24:17 ?
Uosat F 22 Oct 04:21:00 04:25:06 25° 96° (E) 04:29:10 435.120 FM
TMSAT-1 22 Oct 04:31:54 04:36:41 35° 290° (WNW) 04:41:27 436.925 FM
OPAL 22 Oct 04:53:58 04:59:08 73° 73° (ENE) 05:04:15 ?
JAS-2 22 Oct 04:59:34 05:05:28 23° 92° (E) 05:11:20 435.800 - 435.900 CW/SSB, 435.910 FM
AO-7 22 Oct 05:22:03 05:30:24 86° 288° (WNW) 05:38:45 29.400 - 29.500 MHz
RS-15 22 Oct 05:23:23 05:31:18 21° 30° (NNE) 05:39:22 29.354 - 29.394 USB, Beacon 29.352 USB
Sapphire 22 Oct 05:36:20 05:40:52 27° 307° (NW) 05:45:26 437.095 MHz 1200 baud AX-25 AFSK
Hamsat 22 Oct 05:54:12 05:57:51 28° 97° (E) 06:01:30 145.90 MHz
Uosat F 22 Oct 05:59:22 06:03:53 34° 291° (WNW) 06:08:22 435.120 FM
PCSat 22 Oct 06:00:41 06:04:08 17° 312° (NW) 06:07:35 145.825 MHz
STRAND 1 22 Oct 06:33:42 06:38:45 64° 74° (ENE) 06:43:51 ?
OPAL 22 Oct 06:36:47 06:38:25 11° 267° (W) 06:40:04 ?
JAS-2 22 Oct 06:43:11 06:50:52 69° 287° (WNW) 06:58:36 435.800 - 435.900 CW/SSB, 435.910 FM
Saudisat 1A 22 Oct 06:52:51 06:54:25 12° 108° (ESE) 06:55:59 436.775 MHz
AO-7 22 Oct 07:16:56 07:22:01 18° 307° (NW) 07:27:06 29.400 - 29.500 MHz
Hamsat 22 Oct 07:30:32 07:33:36 20° 291° (WNW) 07:36:41 145.90 MHz
RS-15 22 Oct 07:35:06 07:46:16 67° 56° (ENE) 07:57:53 29.354 - 29.394 USB, Beacon 29.352 USB
SO-67 22 Oct 07:35:30 07:38:54 56° 100° (E) 07:42:16 435.3500 MHz FM
STRAND 1 22 Oct 08:16:08 08:18:21 13° 269° (W) 08:20:34 ?
Saudisat 1A 22 Oct 08:29:07 08:33:26 59° 302° (WNW) 08:37:47 436.775 MHz
JAS-2 22 Oct 08:31:20 08:34:33 13° 304° (WNW) 08:37:48 435.800 - 435.900 CW/SSB, 435.910 FM
HO-68 22 Oct 09:11:19 09:18:06 43° 100° (E) 09:24:50 435.675 MHz FM
PANSAT 22 Oct 09:13:15 09:16:08 21° 171° (S) 09:19:02 not established
MaSat-1 22 Oct 09:29:06 09:30:57 17° 59° (ENE) 09:32:43 437.345 MHz
Oscar 11 22 Oct 09:35:19 09:38:27 20° 94° (E) 09:41:34 145.825 FM, Beacon 2401.500 USB
RS-15 22 Oct 09:48:28 09:57:51 32° 255° (WSW) 10:07:35 29.354 - 29.394 USB, Beacon 29.352 USB
ZACube-1 22 Oct 10:16:30 10:19:54 23° 95° (E) 10:23:14 437.345 MHz
UKube-1 22 Oct 10:26:19 10:30:42 86° 104° (ESE) 10:35:04 145.840 MHz, 145.915 MHz
